"Pseudo-MPEC" for P10HKZo

Created 2018 Jun 18 13:18:08 UT using Find_Orb

Click here for an explanation of pseudo-MPECs

 
 Astrometry: 
     P10HKZo  C2018 06 11bfAstrometry;AX9VxUa/b]NmtbO0erRI8oYKu.gaJbs=?qrZZZ=F51
     P10HKZo  C2018 06 11b'8$VnhAfAEXjXv;S+\o/EhL:DRNYok:aoq/^luYk-IJ*?#iULxTF51
     P10HKZo  C2018 06 11oJL/H$7[N(v5RmEj9tI+(LU2k2U!_SU.W(=Y,.;4kkJw8IgQCj6%F51
     P10HKZo  C2018 06 11kkbXFcqyr%0Tvj;^_redacted;OOPyLh9sF]0%Uqb3=%^qQc',9KF51
     P10HKZo  C2018 06 12.45144 22 28 05.78 -26 02 45.3          21.8 GUNEOCPI52
     P10HKZo KC2018 06 12Gx0vM`PT(RGVR+fX+AOG/Fm=W1EcJpdH';PAk*$wQZ*6uukv*kR/691
     P10HKZo  C2018 06 12.45454 22 28 06.42 -26 02 39.6          21.5 GUNEOCPI52
     P10HKZo KC2018 06 124cTwg$j_W@[H$_y/s)FsEAnjS\@+k.Hysee`i#Y=YSx[W]4g03)=691
     P10HKZo  C2018 06 12.45763 22 28 07.12 -26 02 34.8          21.5 GUNEOCPI52
     P10HKZo ^C2018 06 12.61265422 28 41.998-25 57 53.93         20.98GVNEOCP568
     P10HKZo ^C2018 06 12.61359722 28 42.203-25 57 52.32         21.04GVNEOCP568
     P10HKZo ^C2018 06 12.61454322 28 42.409-25 57 50.60         20.89GVNEOCP568
     P10HKZo KC2018 06 13.Q.L*DGiiUkh;[EqnbPH`e%wF-Y65hBCnLA;p0KaR@vx8k:B9!.r691
     P10HKZo KC2018 06 13R.?`RP;tr9iyZ^IEcdw*aOBRjdEEL=wZ67:ih0c:IRm]kp(T[Z^B691
     P10HKZo KC2018 06 13/ZNyEsDqjv,'3FpU0YJYfqqWhS1I3pEC*svOlu!\qa=*a3:NEOCP691
     P10HKZo  C2018 06 18.41396 22 51 00.76 -22 44 28.8          21.2 GUNEOCPI52
     P10HKZo  C2018 06 18.41562 22 51 01.14 -22 44 25.5          20.6 GUNEOCPI52
     P10HKZo  C2018 06 18.42926 22 51 04.31 -22 43 56.1          20.4 GUNEOCPI52
     P10HKZo  C2018 06 18.43092 22 51 04.66 -22 43 52.6          20.2 GUNEOCPI52

Station data:
(568) Mauna Kea  (N19.826116 W155.472200)  US/Hawaii.
(691) Steward Observatory, Kitt Peak - Spacewatch  (N31.962174 W111.600327)
   US/Arizona.  Observer J. V. Scotti. 0.9-m f/3 reflector + CCD.
(F51) Pan-STARRS 1, Haleakala  (N20.707235 W156.255910)  US/Hawaii.
   Observers N. Primak, A. Schultz, S. Watters, J. Thiel, T. Goggia. Measurer
   PS1 Science Consortium. 1.8-m Ritchey-Chrétien + CCD.
(I52) Steward Observatory, Mt. Lemmon Station  (N32.442547 W110.788920)
   US/Arizona.  Observers B. M. Africano, E. J. Christensen, D. C. Fuls, A.
   R. Gibbs, A. D. Grauer, J. A. Johnson, R. A. Kowalski, S. M. Larson, G. J.
   Leonard, R. L. Seaman, F. C. Shelly. 1.0-m reflector + CCD.

Orbital elements:  P10HKZo
   Perihelion 2018 Aug 23.105892 +/- 1.01 TT =  2:32:29 (JD 2458353.605892)
Epoch 2018 Jun 18.0 TT = JDT 2458287.5   Earth MOID: 0.0733   AutoNEOCP
M 336.28060 +/- 1.9                 (J2000 ecliptic)
n   0.35880913 +/- 0.024            Peri.   37.87870 +/- 1.1
a   1.96137389 +/- 0.0875           Node   313.07456 +/- 0.42
e   0.4717676 +/- 0.0208            Incl.   11.91544 +/- 0.15
P   2.75                   H 20.5   G  0.15   U 10.2  
q 1.03606120 +/- 0.00574    Q 2.88668658 +/- 0.178
From 19 observations 2018 June 11-18; mean residual 0".36
Residuals in arcseconds: 
180611 F51  .15+  .12+    180612 691  1.1-  .37+    180613 691  .10-  .07+    
180611 F51  .25+  .09+    180612 I52  .28-  .94-    180618 I52  .12-  .54+    
180611 F51  .01+  .45+    180612 568  .21+  .03+    180618 I52  .15-  .20+    
180611 F51  .01+  .02-    180612 568  .19+  .05-    180618 I52  .34+  .31-    
180612 I52  .01-  .47-    180612 568  .18+  .02-    180618 I52  .09-  .46-    
180612 691  .61+  .25+    180613 691  .50+  .44+    
180612 I52  .56-  .26-    180613 691  .01-  .21+    

Ephemerides (geocentric):
Date (UTC) HH   RA              Dec         delta   r     elong  mag " sig PA
---- -- -- --  -------------   -----------  ------ ------ -----  --- ---- ---
2018 06 18 13  22 51 30.175   -22 39 32.18  .47775 1.2673 110.8 21.2  .45 174
2018 06 18 14  22 51 40.001   -22 37 59.44  .47743 1.2671 110.8 21.2  .47 175
2018 06 18 15  22 51 49.831   -22 36 26.56  .47710 1.2668 110.8 21.2  .48 175
2018 06 18 16  22 51 59.663   -22 34 53.55  .47677 1.2666 110.8 21.2  .50 176
2018 06 18 17  22 52 09.499   -22 33 20.40  .47645 1.2663 110.8 21.2  .52 177
2018 06 18 18  22 52 19.338   -22 31 47.12  .47612 1.2661 110.8 21.2  .53 177
2018 06 18 19  22 52 29.179   -22 30 13.70  .47580 1.2658 110.8 21.2  .55 178
2018 06 18 20  22 52 39.024   -22 28 40.14  .47547 1.2656 110.8 21.2  .57 178
2018 06 18 21  22 52 48.872   -22 27 06.45  .47515 1.2653 110.8 21.2  .59 179
2018 06 18 22  22 52 58.723   -22 25 32.62  .47482 1.2651 110.8 21.2  .60 179
2018 06 18 23  22 53 08.577   -22 23 58.66  .47450 1.2648 110.8 21.2  .62   0
2018 06 19 00  22 53 18.433   -22 22 24.56  .47418 1.2646 110.8 21.2  .64   0
2018 06 19 01  22 53 28.293   -22 20 50.32  .47385 1.2643 110.8 21.2  .66   1
2018 06 19 02  22 53 38.157   -22 19 15.95  .47353 1.2641 110.8 21.2  .68   1
2018 06 19 03  22 53 48.023   -22 17 41.44  .47321 1.2639 110.8 21.2  .70   2
2018 06 19 04  22 53 57.892   -22 16 06.79  .47288 1.2636 110.8 21.2  .72   2
2018 06 19 05  22 54 07.764   -22 14 32.01  .47256 1.2634 110.8 21.2  .74   3
2018 06 19 06  22 54 17.639   -22 12 57.09  .47224 1.2631 110.8 21.2  .77   3
2018 06 19 07  22 54 27.518   -22 11 22.03  .47192 1.2629 110.7 21.2  .79   4
2018 06 19 08  22 54 37.399   -22 09 46.83  .47160 1.2626 110.7 21.2  .81   4
2018 06 19 09  22 54 47.284   -22 08 11.50  .47128 1.2624 110.7 21.2  .83   5
2018 06 19 10  22 54 57.171   -22 06 36.03  .47095 1.2621 110.7 21.2  .86   5
2018 06 19 11  22 55 07.062   -22 05 00.42  .47063 1.2619 110.7 21.2  .88   5
2018 06 19 12  22 55 16.956   -22 03 24.67  .47031 1.2616 110.7 21.2  .90   6
2018 06 19 13  22 55 26.853   -22 01 48.78  .46999 1.2614 110.7 21.2  .93   6
2018 06 19 14  22 55 36.752   -22 00 12.76  .46967 1.2611 110.7 21.2  .95   7
2018 06 19 15  22 55 46.655   -21 58 36.59  .46935 1.2609 110.7 21.2  .98   7
2018 06 19 16  22 55 56.561   -21 57 00.29  .46903 1.2607 110.7 21.2  1.0   7
2018 06 19 17  22 56 06.471   -21 55 23.85  .46872 1.2604 110.7 21.2  1.0   8
2018 06 19 18  22 56 16.383   -21 53 47.27  .46840 1.2602 110.7 21.2  1.1   8
2018 06 19 19  22 56 26.298   -21 52 10.56  .46808 1.2599 110.7 21.2  1.1   8
2018 06 19 20  22 56 36.217   -21 50 33.70  .46776 1.2597 110.7 21.2  1.1   9
2018 06 19 21  22 56 46.138   -21 48 56.70  .46744 1.2594 110.7 21.2  1.1   9
2018 06 19 22  22 56 56.063   -21 47 19.57  .46713 1.2592 110.7 21.2  1.2   9
2018 06 19 23  22 57 05.991   -21 45 42.29  .46681 1.2589 110.6 21.2  1.2  10
2018 06 20 00  22 57 15.922   -21 44 04.87  .46649 1.2587 110.6 21.2  1.2  10
2018 06 20 01  22 57 25.856   -21 42 27.32  .46617 1.2585 110.6 21.2  1.3  10
2018 06 20 02  22 57 35.793   -21 40 49.62  .46586 1.2582 110.6 21.2  1.3  11
2018 06 20 03  22 57 45.733   -21 39 11.79  .46554 1.2580 110.6 21.2  1.3  11
2018 06 20 04  22 57 55.676   -21 37 33.81  .46523 1.2577 110.6 21.2  1.3  11
2018 06 20 05  22 58 05.622   -21 35 55.70  .46491 1.2575 110.6 21.2  1.4  11
2018 06 20 06  22 58 15.572   -21 34 17.44  .46459 1.2572 110.6 21.2  1.4  12
2018 06 20 07  22 58 25.525   -21 32 39.04  .46428 1.2570 110.6 21.2  1.4  12
2018 06 20 08  22 58 35.480   -21 31 00.51  .46396 1.2567 110.6 21.2  1.5  12
2018 06 20 09  22 58 45.439   -21 29 21.83  .46365 1.2565 110.6 21.2  1.5  13
2018 06 20 10  22 58 55.401   -21 27 43.01  .46334 1.2563 110.6 21.2  1.5  13
2018 06 20 11  22 59 05.367   -21 26 04.05  .46302 1.2560 110.6 21.2  1.6  13
2018 06 20 12  22 59 15.335   -21 24 24.94  .46271 1.2558 110.6 21.2  1.6  13